• In Romania
  • List of Countries
  • For 7 days
  • Water Temperature
  • Satellite Maps
  • Weather Map
  • Weather Widgets
  • user-avatar
    Login

    Hourly Weather Ondjiwa

    Today, 20 February, Monday

    Time Temperature Precipitation Wind Pressure Humidity
    00:00 +23°C° 0 mm 2 mps 667 mmHg 84%
    01:00 +22°C° 0 mm 1 mps 667 mmHg 86%
    02:00 +22°C° 0 mm 1 mps 666 mmHg 87%
    03:00 +22°C° 0 mm 1 mps 666 mmHg 88%
    04:00 +21°C° 0 mm 1 mps 666 mmHg 89%
    05:00 +21°C° 0 mm 1 mps 666 mmHg 87%
    06:00 +22°C° 0 mm 1 mps 667 mmHg 86%
    07:00 +22°C° 0 mm 1 mps 667 mmHg 84%
    08:00 +24°C° 0 mm 1 mps 667 mmHg 74%
    09:00 +26°C° 0 mm 2 mps 668 mmHg 64%
    10:00 +27°C° 0 mm 2 mps 668 mmHg 54%
    11:00 +29°C° 0 mm 3 mps 668 mmHg 48%
    12:00 +30°C° 0 mm 3 mps 667 mmHg 42%
    13:00 +33°C° 0 mm 4 mps 667 mmHg 35%
    14:00 +33°C° 0 mm 4 mps 667 mmHg 34%
    15:00 +33°C° 0 mm 4 mps 666 mmHg 33%
    16:00 +33°C° 0 mm 4 mps 666 mmHg 32%
    17:00 +31°C° 0 mm 3 mps 665 mmHg 38%
    18:00 +29°C° 0 mm 3 mps 665 mmHg 44%
    19:00 +27°C° 0 mm 3 mps 665 mmHg 49%
    20:00 +26°C° 0 mm 3 mps 665 mmHg 56%
    21:00 +25°C° 0 mm 3 mps 666 mmHg 63%
    22:00 +24°C° 0 mm 2 mps 666 mmHg 70%
    23:00 +23°C° 0 mm 2 mps 666 mmHg 71%

    Tomorrow, 21 February, Tuesday

    Time Temperature Precipitation Wind Pressure Humidity
    00:00 +23°C° 0 mm 2 mps 666 mmHg 72%
    01:00 +21°C° 0 mm 2 mps 666 mmHg 72%
    02:00 +21°C° 0 mm 2 mps 665 mmHg 72%
    03:00 +20°C° 0 mm 2 mps 665 mmHg 71%
    04:00 +19°C° 0 mm 2 mps 665 mmHg 70%
    05:00 +19°C° 0 mm 2 mps 666 mmHg 69%
    06:00 +20°C° 0 mm 2 mps 666 mmHg 68%
    07:00 +20°C° 0 mm 2 mps 666 mmHg 66%
    08:00 +22°C° 0 mm 3 mps 667 mmHg 58%
    09:00 +24°C° 0 mm 3 mps 667 mmHg 49%
    10:00 +26°C° 0 mm 3 mps 668 mmHg 41%
    11:00 +28°C° 0 mm 3 mps 667 mmHg 37%
    12:00 +29°C° 0 mm 4 mps 667 mmHg 33%
    13:00 +32°C° 0 mm 4 mps 666 mmHg 29%
    14:00 +33°C° 0 mm 4 mps 666 mmHg 29%
    15:00 +33°C° 0 mm 4 mps 665 mmHg 29%
    16:00 +34°C° 0 mm 4 mps 665 mmHg 29%
    17:00 +32°C° 0 mm 4 mps 665 mmHg 33%
    18:00 +29°C° 0 mm 3 mps 665 mmHg 38%
    19:00 +27°C° 0 mm 3 mps 665 mmHg 43%
    20:00 +27°C° 0 mm 3 mps 665 mmHg 47%
    21:00 +26°C° 0 mm 3 mps 666 mmHg 50%
    22:00 +25°C° 0 mm 3 mps 667 mmHg 54%
    23:00 +25°C° 0 mm 3 mps 666 mmHg 56%

    Day after tomorrow, 22 February, Wednesday

    Time Temperature Precipitation Wind Pressure Humidity
    00:00 +24°C° 0 mm 2 mps 666 mmHg 58%
    01:00 +24°C° 0 mm 2 mps 666 mmHg 61%
    02:00 +23°C° 0 mm 2 mps 666 mmHg 64%
    03:00 +21°C° 0 mm 2 mps 665 mmHg 67%
    04:00 +21°C° 0 mm 2 mps 665 mmHg 70%
    05:00 +21°C° 0 mm 2 mps 666 mmHg 70%
    06:00 +21°C° 0 mm 2 mps 666 mmHg 70%
    07:00 +22°C° 0 mm 1 mps 666 mmHg 71%
    08:00 +24°C° 0 mm 2 mps 667 mmHg 64%
    09:00 +25°C° 0 mm 2 mps 667 mmHg 58%
    10:00 +27°C° 0 mm 2 mps 668 mmHg 52%
    11:00 +27°C° 0.1 mm 2 mps 667 mmHg 49%
    12:00 +28°C° 0.1 mm 3 mps 667 mmHg 46%
    13:00 +28°C° 0.1 mm 3 mps 666 mmHg 42%
    14:00 +29°C° 0.2 mm 2 mps 666 mmHg 40%
    15:00 +29°C° 0.2 mm 2 mps 665 mmHg 39%
    16:00 +29°C° 0.2 mm 2 mps 664 mmHg 37%
    17:00 +28°C° 0 mm 1 mps 665 mmHg 41%
    18:00 +27°C° 0 mm 1 mps 665 mmHg 46%
    19:00 +26°C° 0 mm 1 mps 665 mmHg 51%
    20:00 +25°C° 0.3 mm 1 mps 665 mmHg 55%
    21:00 +24°C° 0.3 mm 1 mps 666 mmHg 59%
    22:00 +24°C° 0.3 mm 2 mps 666 mmHg 62%
    23:00 +23°C° 0.3 mm 2 mps 666 mmHg 66%

    23 February, Thursday

    Time Temperature Precipitation Wind Pressure Humidity
    00:00 +21°C° 0.3 mm 2 mps 665 mmHg 70%
    01:00 +21°C° 0.3 mm 2 mps 665 mmHg 73%
    02:00 +21°C° 0 mm 3 mps 665 mmHg 75%
    03:00 +20°C° 0 mm 3 mps 665 mmHg 77%
    04:00 +20°C° 0 mm 3 mps 665 mmHg 79%
    05:00 +20°C° 0 mm 2 mps 665 mmHg 79%
    06:00 +20°C° 0 mm 2 mps 666 mmHg 79%
    07:00 +20°C° 0 mm 2 mps 666 mmHg 79%
    08:00 +23°C° 0 mm 2 mps 667 mmHg 70%
    09:00 +26°C° 0 mm 2 mps 667 mmHg 61%
    10:00 +28°C° 0 mm 2 mps 668 mmHg 52%
    11:00 +29°C° 0.2 mm 2 mps 668 mmHg 48%
    12:00 +30°C° 0.2 mm 1 mps 667 mmHg 44%
    13:00 +32°C° 0.2 mm 1 mps 667 mmHg 40%
    14:00 +31°C° 0.3 mm 1 mps 666 mmHg 42%
    15:00 +31°C° 0.3 mm 1 mps 665 mmHg 43%
    16:00 +30°C° 0.3 mm 2 mps 665 mmHg 45%
    17:00 +29°C° 0.1 mm 1 mps 665 mmHg 49%
    18:00 +28°C° 0.1 mm 1 mps 665 mmHg 54%
    19:00 +27°C° 0.1 mm 1 mps 665 mmHg 58%
    20:00 +26°C° 0.1 mm 1 mps 665 mmHg 61%
    21:00 +26°C° 0.1 mm 1 mps 666 mmHg 63%
    22:00 +25°C° 0.1 mm 1 mps 666 mmHg 65%
    23:00 +24°C° 1.2 mm 1 mps 666 mmHg 70%

    24 February, Friday

    Time Temperature Precipitation Wind Pressure Humidity
    00:00 +23°C° 1.2 mm 2 mps 665 mmHg 75%
    01:00 +22°C° 1.2 mm 3 mps 665 mmHg 79%
    02:00 +21°C° 0.1 mm 3 mps 665 mmHg 81%
    03:00 +21°C° 0.1 mm 2 mps 665 mmHg 82%
    04:00 +20°C° 0.1 mm 2 mps 665 mmHg 84%
    05:00 +20°C° 0.1 mm 2 mps 665 mmHg 83%
    06:00 +21°C° 0.1 mm 2 mps 665 mmHg 81%
    07:00 +21°C° 0.1 mm 2 mps 666 mmHg 80%
    08:00 +24°C° 0 mm 1 mps 666 mmHg 71%
    09:00 +26°C° 0 mm 1 mps 667 mmHg 61%
    10:00 +28°C° 0 mm 1 mps 667 mmHg 51%
    11:00 +31°C° 0 mm 1 mps 667 mmHg 45%
    12:00 +33°C° 0 mm 1 mps 667 mmHg 38%
    13:00 +33°C° 0 mm 0 mps 667 mmHg 32%
    14:00 +32°C° 0 mm 0 mps 666 mmHg 33%
    15:00 +31°C° 0 mm 0 mps 666 mmHg 33%
    16:00 +33°C° 0 mm 1 mps 665 mmHg 34%
    17:00 +31°C° 0 mm 1 mps 665 mmHg 39%
    18:00 +28°C° 0 mm 0 mps 665 mmHg 45%
    19:00 +26°C° 0 mm 0 mps 665 mmHg 50%
    20:00 +28°C° 0.1 mm 1 mps 665 mmHg 52%
    21:00 +27°C° 0.1 mm 1 mps 666 mmHg 54%
    22:00 +26°C° 0.1 mm 2 mps 666 mmHg 56%
    23:00 +26°C° 0.2 mm 2 mps 666 mmHg 60%

    25 February, Saturday

    Time Temperature Precipitation Wind Pressure Humidity
    00:00 +25°C° 0.2 mm 2 mps 665 mmHg 64%
    01:00 +24°C° 0.2 mm 3 mps 665 mmHg 69%
    02:00 +24°C° 0.1 mm 2 mps 665 mmHg 70%
    03:00 +23°C° 0.1 mm 2 mps 665 mmHg 71%
    04:00 +23°C° 0.1 mm 2 mps 665 mmHg 72%
    05:00 +23°C° 0 mm 2 mps 666 mmHg 71%
    06:00 +23°C° 0 mm 2 mps 666 mmHg 70%
    07:00 +23°C° 0 mm 2 mps 667 mmHg 69%
    08:00 +26°C° 0 mm 2 mps 667 mmHg 59%
    09:00 +28°C° 0 mm 2 mps 668 mmHg 49%
    10:00 +30°C° 0 mm 2 mps 668 mmHg 40%
    11:00 +32°C° 0 mm 2 mps 668 mmHg 34%
    12:00 +35°C° 0 mm 2 mps 668 mmHg 29%
    13:00 +36°C° 0 mm 1 mps 667 mmHg 24%
    14:00 +35°C° 0 mm 1 mps 667 mmHg 25%
    15:00 +35°C° 0 mm 1 mps 666 mmHg 26%
    16:00 +34°C° 0 mm 1 mps 666 mmHg 27%
    17:00 +33°C° 0 mm 1 mps 666 mmHg 30%
    18:00 +31°C° 0 mm 1 mps 666 mmHg 34%
    19:00 +30°C° 0 mm 2 mps 666 mmHg 37%
    20:00 +29°C° 0 mm 2 mps 666 mmHg 40%
    21:00 +28°C° 0 mm 1 mps 666 mmHg 43%
    22:00 +28°C° 0 mm 1 mps 667 mmHg 46%
    23:00 +27°C° 0 mm 2 mps 666 mmHg 49%
    Show more